National Weather Service United States Department of Commerce


000
ASUS42 KCAE 141710
RWRCAE
REGIONAL WEATHER ROUNDUP
NATIONAL WEATHER SERVICE COLUMBIA SC
1200 PM EST THU NOV 14 2019

NOTE: "FAIR" INDICATES FEW OR NO CLOUDS BELOW 12,000 FEET WITH NO
SIGNIFICANT WEATHER AND/OR OBSTRUCTIONS TO VISIBILITY.

NOT ALL STATIONS ARE QUALITY CONTROLLED BY THE NATIONAL
WEATHER SERVICE. USE DATA WITH CAUTION...ESPECIALLY
DEWPOINT OBSERVATIONS.

SCZ001>056-GAZ040-063>065-077-141800-
...UPSTATE SOUTH CAROLINA...

CITY SKY/WX TMP DP RH WIND PRES REMARKS
ANDERSON CLOUDY 41 23 48 E5 30.34F
LIBERTY CLOUDY 40 23 51 SE3 30.33S
SPARTANBURG CLOUDY 37 19 48 CALM 30.34F
CLEMSON CLOUDY 40 22 48 CALM 30.35F
GREENVILLE CLOUDY 39 23 52 E6 30.34F WCI 35
GREENWOOD CLOUDY 39 26 59 NE6 30.36F WCI 35
GREER CLOUDY 37 20 50 VRB5 30.34F WCI 33
ROCK HILL CLOUDY 40 20 44 VRB6 30.36F
CHESTER CLOUDY 37 21 52 NE5 30.38F WCI 34
LAURENS CLOUDY 37 25 60 CALM 30.35F


...CENTRAL SOUTH CAROLINA...

CITY SKY/WX TMP DP RH WIND PRES REMARKS
COLUMBIA APT LGT RAIN 42 26 53 N5 30.35F
COLUMBIA OWENS CLOUDY 41 27 57 VRB5 30.37F
MCENTIRE ANGB CLOUDY 41 24 50 N12 30.35F
ORANGEBURG CLOUDY 42 28 57 N9 30.33F
SUMTER SHAW CLOUDY 44 28 52 NE13 30.33F
NEWBERRY CLOUDY 41 27 56 NE8 30.39S
AIKEN CLOUDY 43 30 61 N10G16 30.35F
BARNWELL DRIZZLE 41 36 81 N7 30.33F
MANNING RAIN 43 34 70 NE7 30.31F
CAMDEN CLOUDY 41 25 52 NW8 30.37F
LANCASTER CLOUDY 39 21 48 CALM 30.36F
WINNSBORO CLOUDY 41 27 56 N5 30.33F


...EASTERN AND COASTAL SOUTH CAROLINA...

CITY SKY/WX TMP DP RH WIND PRES REMARKS
MYRTLE BEACH CLOUDY 51 41 68 N7 30.30F
N MYRTLE BCH PTSUNNY 52 41 66 NE8 30.29F
CONWAY PTSUNNY 50 39 66 NE7 30.31F
MARION CLOUDY 45 34 65 N5 30.34F
HARTSVILLE CLOUDY 43 27 52 NE6 30.35F
FLORENCE CLOUDY 45 31 58 N12 30.34F
DARLINGTON LGT RAIN 44 29 55 N8 30.36F
CHARLESTON APT CLOUDY 48 41 76 N9 30.27F
MOUNT PLEASANT CLOUDY 50 46 87 VRB7 30.26F
WALTERBORO DRIZZLE 41 37 87 N6 30.31F
BEAUFORT CLOUDY 46 45 96 N14 30.27F
HILTON HEAD CLOUDY 48 45 87 NE15 30.28S


...EASTERN GEORGIA...

CITY SKY/WX TMP DP RH WIND PRES REMARKS
AUGUSTA BUSH F CLOUDY 48 31 51 NE9 30.31F
AUGUSTA DANIEL CLOUDY 45 28 51 NE8 30.32F
THOMSON CLOUDY 42 28 58 E7 30.33F
CLAXTON CLOUDY 49 39 70 N5 30.29R
SYLVANIA CLOUDY 47 36 64 N9 30.30F
STATESBORO CLOUDY 46 36 68 NE10 30.28F
SAVANNAH CLOUDY 49 42 77 N8 30.27S


...SOUTHERN NORTH CAROLINA...

CITY SKY/WX TMP DP RH WIND PRES REMARKS
CHARLOTTE CLOUDY 40 20 44 N5 30.37F
MONROE CLOUDY 38 20 48 NE6 30.36F WCI 33
WADESBORO N/A 41 22 48 MISG 30.37F
ROCKINGHAM PTSUNNY 42 18 37 N5 30.36F
RUTHERFORDTON PTSUNNY 36 19 51 CALM 30.34F
ASHEVILLE FAIR 37 22 54 S5 30.28F WCI 33

$$